User: anonymous   Login
Location: Cutler
(25.6150°N, 80.3110°W)
Time: 04:53:14
(UTC-05:00)
Language:

Cosmos 2360 Rocket - Orbit

View from above orbital plane
View from above orbital plane
View from above satellite
View from above satellite

Ground track
Ground track

The orbit data is extracted from the following two-line orbital elements,

1 25407U 98045B   14329.88374854 -.00000103  00000-0 -28424-4 0  6223
2 25407 071.0108 204.7278 0008335 206.3700 228.9076 14.15681146843954
Epoch (UTC): 25 November 2014 21:12:35
Eccentricity: 0.0008335
inclination: 71.0108°
perigee height: 834 km
apogee height: 846 km
right ascension of ascending node: 204.7278°
argument of perigee: 206.3700°
revolutions per day: 14.15681146
mean anomaly at epoch: 228.9076°
orbit number at epoch: 84395

The dashed part of the orbit path shows where the satellite is in the earth's shadow,  

DLR